Location: Kuzca
(36.6690°N, 30.3320°E)
Time: 01:18:09
(UTC+00:00)

Daily predictions for brighter satellites

Satellite Brightness Start Highest point End
(mag) Time Altitude Azimuth Time Altitude Azimuth Time Altitude Azimuth
CZ-3A R/B 4.4 01:50:24 45° S 01:50:42 45° S 01:59:47 10° ESE
ATLAS 3B CENTAUR R/B 4.2 02:08:12 42° SSW 02:08:45 42° S 02:23:19 10° SE
Cosmos 1844 Rocket 3.7 02:18:23 40° ENE 02:18:35 40° ENE 02:23:47 10° SE
Cosmos 2322 4.5 02:20:13 48° ESE 02:20:20 49° ESE 02:25:50 10° NNE
Cosmos 2333 Rocket 3.2 02:21:10 33° SSE 02:23:00 43° ESE 02:28:19 10° NE
Meteor 2-5 Rocket 4.4 02:27:34 40° NNE 02:29:05 50° ENE 02:34:36 10° SSE
Tsikada Rocket 3.9 02:36:54 82° SE 02:36:54 82° SE 02:42:48 10° S
Cosmos 2219 Rocket 2.9 02:33:17 17° S 02:37:21 50° ESE 02:42:44 10° NNE
SJ 16-02 3.3 02:38:31 23° NE 02:39:48 26° ENE 02:43:29 10° SE
COSMOS 2455 4.3 02:43:23 23° S 02:43:23 23° S 02:45:42 10° S
COSMOS 2428 3.6 02:36:44 10° S 02:42:08 46° ESE 02:47:34 10° NE
Cosmos 2333 4.1 02:48:19 75° N 02:48:19 75° N 02:53:27 10° NNE
Cosmos 2360 Rocket 3.8 03:07:59 19° N 03:07:59 19° N 03:09:52 10° N
Chandra Rocket (1) 3.7 03:07:49 23° SSW 03:08:20 24° S 03:10:59 10° SE
SKYMED 2 3.7 03:09:20 10° SSE 03:13:38 75° ENE 03:15:58 27° N
Meteor 1-24 Rocket 3.5 03:10:06 21° NNW 03:13:50 82° W 03:19:28 10° S
Cosmos 1455 Rocket 3.9 03:09:50 10° SSE 03:14:04 50° E 03:18:17 10° NNE
BREEZE M DEB (TANK) 4.0 03:14:51 15° SE 03:15:07 15° SE 03:16:32 10° E
GEOS 3 Rocket 3.8 03:13:31 10° SE 03:18:50 76° NE 03:21:59 26° NNW
Cosmos 2233 Rocket 4.2 03:13:32 10° SSW 03:19:27 43° WNW 03:25:21 10° N
Cosmos 1763 Rocket 3.6 03:15:46 10° S 03:20:51 74° ESE 03:26:03 10° NNE
Atlas Centaur 2 4.3 03:15:56 11° SW 03:23:04 36° SSE 03:30:39 10° E
CZ-4B R/B 2.4 03:20:44 10° N 03:24:20 83° WNW 03:28:00 10° SSW
Cosmos 1758 3.2 03:22:24 10° S 03:26:24 89° W 03:30:28 10° N
MOS 1 Rocket 3.7 03:22:16 10° SSE 03:27:26 72° ENE 03:32:22 10° N
Cosmos 1844 3.8 03:28:59 28° NW 03:32:01 59° WSW 03:37:41 10° S
deb Chang Zheng 4 3.7 03:34:41 10° N 03:38:45 45° WNW 03:42:47 10° SW
BREEZE-M DEB (TANK) 4.1 03:34:51 19° NW 03:40:53 40° NNE 03:44:20 10° E
Cosmos 1513 Rocket 4.4 03:35:18 10° S 03:41:39 76° W 03:47:57 10° N
CZ-4B R/B 3.0 03:40:00 10° SSW 03:41:33 21° SW 03:41:33 21° SW
GPS 2-04 Rocket1 2.8 03:43:30 34° W 03:45:10 70° S 03:49:19 10° ESE
YAOGAN 6 2.6 03:43:31 10° NNE 03:47:13 82° E 03:50:54 10° S
Cosmos 1891 Rocket 4.4 03:42:08 10° SSW 03:48:20 65° W 03:54:27 10° N
Cosmos 44 4.2 03:46:44 27° WNW 03:48:37 34° WSW 03:53:25 10° S
Cosmos 468 Rocket 4.1 03:44:16 10° SSW 03:49:21 54° WNW 03:54:32 10° N
ERS-2 2.3 03:47:14 10° S 03:50:45 46° W 03:52:45 23° NW
Meteor PRIRODA 4.0 03:47:31 10° N 03:50:53 37° WNW 03:54:14 10° SW
Cosmos 1464 Rocket 3.9 03:45:08 10° SSW 03:51:13 67° W 03:57:19 10° N
Cosmos 1892 Rocket 3.5 03:49:02 10° NNW 03:53:19 59° W 03:57:37 10° S
CZ-3A R/B 4.4 03:45:13 13° WSW 03:53:44 31° SSW 03:59:58 10° SE
H-2A R/B 3.8 03:49:39 10° NNE 03:53:58 47° E 03:58:18 10° S
Cosmos 1072 Rocket 4.5 03:48:32 10° SSW 03:54:33 57° W 04:00:42 10° N
NOAA 6 4.4 03:49:38 10° NNE 03:54:50 70° ESE 03:59:59 10° S
Meteor 2-10 4.4 03:51:41 10° SSW 03:57:09 47° WNW 04:02:31 10° N
OAO 2 Rocket 3.5 03:54:18 18° WSW 03:57:56 65° S 04:02:50 10° E
Cosmos 1937 Rocket 4.1 03:54:31 10° N 03:59:45 60° ENE 04:04:54 10° SSE
COSMO-SKYMED 1 3.4 03:58:02 10° SSW 04:01:49 29° W 04:04:36 15° NW
Cosmos 1844 Rocket 3.7 04:00:06 20° WNW 04:02:10 24° WSW 04:06:34 10° SSW
CZ-4B R/B 4.5 03:57:41 10° NNE 04:03:08 46° E 04:08:28 10° S
Envisat 2.9 03:58:07 10° N 04:03:11 70° WNW 04:08:13 10° SSW
SJ-7 4.5 03:59:27 10° N 04:03:32 56° WNW 04:07:33 10° SSW
Cosmos 2278 Rocket 2.9 03:58:39 10° NNW 04:04:14 54° ENE 04:09:45 10° SE
Cosmos 1726 3.0 04:01:52 10° SW 04:05:03 27° WNW 04:08:15 10° NNW
NOSS 0 Rocket 3.9 03:59:21 10° SSW 04:05:32 72° WNW 04:11:43 10° NNE
Cosmos 2333 Rocket 3.2 04:03:24 12° WSW 04:07:24 25° WNW 04:11:59 10° N
ATLAS CENTAUR R/B 4.3 04:06:59 10° SSE 04:09:40 19° ESE 04:12:17 10° ENE
Cosmos 1400 Rocket 3.3 04:06:38 10° S 04:10:37 65° E 04:14:40 10° NNE
Cosmos 2237 Rocket 2.2 04:05:37 10° SSW 04:11:16 83° WNW 04:16:59 10° NNE
USA 276 2.1 04:10:21 18° NW 04:12:33 80° NE 04:15:40 10° SE
Cosmos 921 Rocket 3.8 04:13:28 10° SW 04:17:11 28° WNW 04:20:52 10° N
SJ 16-02 2.5 04:15:34 14° NW 04:18:12 22° W 04:21:36 10° SSW
SL-4 R/B 4.3 04:15:40 10° S 04:18:50 26° SE 04:22:14 10° ENE
Cosmos 1461 3.6 04:16:35 10° SW 04:20:56 40° NW 04:25:26 10° NNE
Cosmos 2219 Rocket 3.3 04:17:24 10° WSW 04:21:33 21° WNW 04:25:45 10° N
H-2A R/B 4.0 04:21:03 10° NNW 04:23:45 19° WNW 04:26:26 10° WSW
CZ-2C R/B 2.8 04:19:11 10° SSE 04:24:20 76° ENE 04:29:36 10° N
Cosmos 1544 Rocket 4.0 04:20:33 10° SSW 04:24:32 36° WNW 04:28:32 10° N
SMAP 3.0 04:19:55 10° N 04:24:36 85° WNW 04:29:14 10° SSW
Okean 1-7 Rocket 4.0 04:20:21 10° NNW 04:24:38 41° W 04:28:51 10° SSW
Cosmos 1340 3.1 04:21:26 10° N 04:25:11 63° E 04:28:53 10° SSE
Cosmos 1092 Rocket 4.2 04:20:05 10° N 04:26:14 75° E 04:32:23 10° SSE
PSLV R/B 4.4 04:22:39 10° N 04:26:15 35° WNW 04:29:55 10° SW
Cosmos 2034 Rocket 4.2 04:20:22 10° SSW 04:26:30 50° W 04:32:41 10° N
COSMOS 2428 3.8 04:22:08 10° WSW 04:26:37 23° WNW 04:31:07 10° N
CZ-2C R/B 2.8 04:25:31 10° SW 04:29:03 31° SSE 04:32:23 10° E
NOSS 3-2 (A) 4.3 04:26:03 10° S 04:31:19 52° ESE 04:37:12 10° NE
FALCON 9 DEB 3.2 04:28:55 10° WSW 04:32:14 55° NW 04:35:36 10° NE
Cosmos 1953 3.2 04:31:52 10° SW 04:35:17 27° WNW 04:38:43 10° NNW
Spot 2 4.3 04:32:04 10° N 04:35:53 41° WNW 04:39:40 10° SW
Cosmos 1689 Rocket 4.1 04:38:11 10° WSW 04:39:30 12° W 04:40:49 10° WNW
Cosmos 1980 4.1 04:38:08 10° SW 04:43:26 41° WNW 04:48:46 10° N
Cosmos 540 Rocket 4.0 04:39:48 10° SW 04:44:25 34° WNW 04:49:05 10° N
Cosmos 1634 Rocket 4.0 04:39:35 10° S 04:45:44 80° W 04:51:56 10° N
Nadezhda 4 Rocket 4.3 04:40:41 10° NNW 04:46:23 42° W 04:52:04 10° SSW
NOAA 11 4.2 04:42:07 10° N 04:47:35 75° WNW 04:53:00 10° SSW
